Location: Jetmore Oil Field
(38.1181°N, 99.9337°W)
Time: 00:41:08
(UTC+00:00)

ISS - Pass Details

Date: 28 June 2021
Orbit: 419 x 421 km, 51.6° (Epoch: 30 July)

Event Time Altitude Azimuth Distance (km) Brightness Sun altitude
Exits shadow 10:48:24 - 262° (W) 1,889 -1.0 -5.9°
Maximum altitude 10:52:23 27° 330° (NNW) 845 -2.1 -5.3°
Drops below altitude 10° 10:55:19 10° 31° (NNE) 1,501 0.3 -4.8°
Sets 10:57:38 0° 44° (NE) 2,367 2.2 -4.4°
